This demonstration page uses our WeatherBlox Daily Observations layout. Learn more.

Left ArrowRight Arrow

Hourly Observations for July 6, 2019

Temp ( °F °C ) Dew Point ( °F °C ) Humidity (%) Winds ( mph kmh ) Pressure ( in mb ) Visibility ( mi km ) Precip ( " mm )
12:53 am 00:53 Clear with Mist and Fog 74 23.3 73 22.8 97 97 N N/A 30.01 1016 6 10 N/A
1:53 am 01:53 Clear with Mist and Fog 74 23.3 73 22.8 97 97 N N/A 29.99 1016 4 6 N/A
2:53 am 02:53 Clear with Mist and Fog 73 22.8 73 22.8 100 100 N N/A 30.00 1016 5 8 N/A
3:53 am 03:53 Mostly Clear with Mist and Fog 74 23.3 73 22.8 97 97 N N/A 29.99 1016 5 8 N/A
4:53 am 04:53 Clear with Mist and Fog 73 22.8 72 22.2 96 96 N N/A 30.00 1016 5 8 N/A
5:53 am 05:53 Clear with Mist and Fog 72 22.2 71 21.7 97 97 N N/A 30.00 1016 4 6 N/A
6:17 am 06:17 Clear with Mist and Fog 72 22.2 71 21.7 97 97 N N/A 30.00 1016 3 4 N/A
6:25 am 06:25 Sunny with Mist and Fog 72 22.2 71 21.7 97 97 N N/A 30.00 1016 2 2 N/A
6:44 am 06:44 Sunny with Mist and Fog 73 22.8 72 22.2 96 96 N N/A 30.00 1016 3 5 N/A
6:53 am 06:53 Sunny with Mist and Fog 73 22.8 72 22.2 96 96 N N/A 30.01 1016 3 4 N/A
7:00 am 07:00 Sunny with Mist and Fog 74 23.3 73 22.8 97 97 N N/A 30.01 1016 3 5 N/A
7:53 am 07:53 Sunny 77 25 74 23.3 90 90 W 3 6 30.02 1017 7 11 N/A
8:53 am 08:53 Sunny 80 26.7 74 23.3 82 82 W 3 6 30.03 1017 10 16 N/A
9:53 am 09:53 Sunny 83 28.3 75 23.9 77 77 WSW 5 7 30.02 1017 10 16 N/A
10:53 am 10:53 Mostly Sunny 86 30 76 24.4 72 72 N N/A 30.00 1016 10 16 N/A
11:53 am 11:53 Partly Cloudy 85 29.4 74 23.3 70 70 SW 7 11 30.00 1016 10 16 N/A
12:53 pm 12:53 Mostly Cloudy 86 30 74 23.3 67 67 W 7 11 30.00 1016 10 16 N/A
1:53 pm 13:53 Partly Cloudy 87 30.6 75 23.9 67 67 SSW 7 11 29.97 1015 10 16 N/A
2:53 pm 14:53 Mostly Sunny 89 31.7 75 23.9 63 63 VRB 7 11 29.94 1014 10 16 N/A
3:53 pm 15:53 Sunny 89 31.7 73 22.8 59 59 WSW 8 13 29.93 1014 10 16 N/A
4:53 pm 16:53 Partly Cloudy 89 31.7 72 22.2 57 57 W 10 17 29.92 1013 10 16 N/A
5:53 pm 17:53 Partly Cloudy 86 30 73 22.8 65 65 VRB 7 11 29.91 1013 10 16 N/A
6:53 pm 18:53 Sunny 87 30.6 73 22.8 63 63 W 7 11 29.91 1013 10 16 N/A
7:53 pm 19:53 Partly Cloudy 84 28.9 72 22.2 67 67 WSW 7 11 29.92 1013 10 16 N/A
8:53 pm 20:53 Sunny with Light Rain 79 26.1 71 21.7 77 77 NW 5 7 29.93 1014 10 16 N/A
9:53 pm 21:53 Mostly Clear 75 23.9 74 23.3 96 96 N N/A 29.94 1014 8 13 0.03 0.76
10:53 pm 22:53 Clear with Mist and Fog 76 24.4 74 23.3 94 94 N N/A 29.95 1014 6 10 N/A
11:53 pm 23:53 Clear with Mist and Fog 75 23.9 74 23.3 96 96 N N/A 29.95 1014 5 8 N/A

Powered by AerisWeather